Regional Weather Roundup
Issued by NWS Green Bay, WI

Home | Current Version | Previous Version | Text Only | Print | Product List | Glossary On
Versions: 1 2 3 4 5 6 7 8 9 10 11 12 13 14 15 16 17 18 19 20 21 22 23 24 25 26 27 28 29 30 31 32 33 34 35 36 37 38 39 40 41 42 43 44 45 46 47 48 49 50
000
ASUS43 KGRB 212059
RWRGRB

NORTH-CENTRAL AND NORTHEAST WISCONSIN REGIONAL WEATHER ROUNDUP
NATIONAL WEATHER SERVICE GREEN BAY WI
300 PM CST FRI NOV 21 2014

WIZ005-009-010>012-018-019-212200-
NORTH CENTRAL WISCONSIN

CITY           SKY/WX    TMP DP  RH WIND       PRES   REMARKS
IRONWOOD       MOSUNNY   27  10  50 S15G28    29.93S
MANITOWISH WTR NOT AVBL
ARBOR VITAE    NOT AVBL
EAGLE RIVER    NOT AVBL
LAND O LAKES   NOT AVBL
RHINELANDER    MOSUNNY   21   3  45 S14G21    30.07F WCI   8
PHILLIPS       NOT AVBL
ANTIGO         NOT AVBL
TOMAHAWK       NOT AVBL
MERRILL        NOT AVBL
$$

WIZ013-073-212200-
NORTHEAST WISCONSIN

CITY           SKY/WX    TMP DP  RH WIND       PRES   REMARKS
IRON MOUNTAIN  PTCLDY    24   4  42 S15       30.10F
MARINETTE      MOSUNNY   25   7  46 SW16G25   30.21F
$$

WIZ017-030-035>037-045-212200-
CENTRAL WISCONSIN

CITY           SKY/WX    TMP DP  RH WIND       PRES   REMARKS
MEDFORD        NOT AVBL
WAUSAU         PTSUNNY   24   4  42 S10G21    30.13F
MOSINEE        PTSUNNY   25   7  46 S14       30.16F
MARSHFIELD     CLOUDY    26   5  40 S14       30.14F
WISC RAPIDS    MOSUNNY   27   4  37 S10       30.19F
STEVENS POINT  NOT AVBL
WAUPACA        NOT AVBL
SHAWANO        NOT AVBL
CLINTONVILLE   NOT AVBL
$$

WIZ038-039-048-051-212200-
FOX VALLEY

CITY           SKY/WX    TMP DP  RH WIND       PRES   REMARKS
NWS GREEN BAY  MOSUNNY   27   7  42 S13       30.24F
APPLETON       PTSUNNY   27   5  39 SW17      30.23F
OSHKOSH        MOSUNNY   28   7  41 S15G24    30.24F
FOND DU LAC    MOSUNNY   30   8  39 S15       30.25F
$$

WIZ022-050-052-212200-
EAST CENTRAL WISCONSIN

CITY           SKY/WX    TMP DP  RH WIND       PRES   REMARKS
STURGEON BAY   PTSUNNY   27   7  43 S14       30.23F
MANITOWOC      NOT AVBL
SHEBOYGAN      MOSUNNY   31   5  33 S15       30.26F
$$

LMZ563-521-522-541>543-212200-
LAKESHORE

STATION/POSITION TIME  TEMP    WIND        PRES    VSBY  WAVE
                       AIR SEA DIR/SP/G                  HT/PER
                 (UTC) (F)     (DEG/KT/KT) (MB)    (MI)  (FT/S)
SHEBOYGAN LKSHOR 2000   28 34  190/ 23/ 25 1027.0F
KEWAUNEE LKSHORE 2000   28     190/ 14/ 17 1023.8F
ALGOMA MARINA    2000          230/ 22/ 26   N/A
TWO RIVERS CG    2000   28                 1026.0      6   2
NORTHPORT PIER   2000   26     190/  6/ 15 1023.7F
N MID LAKE BUOY  2000   29 42  230/ 23/ 29 1025.2F         5/ 6
CHAMBERS ISLAND  2000   27     180/  9/ 18 1023.4F
MENOMINEE LKSHOR 2000   25     200/ 11/ 13 1024.1F
$$


USA.gov is the U.S. government's official web portal to all federal, state and local government web resources and services.